Home   Weather   France   Limoges   Past weeks
Flag for France

Past Weather in Limoges, Haute-Vienne, France — Yesterday and Last 2 Weeks

Currently: 41 °F. Fog. (Weather station: Limoges Airport, France). See more current weather

Past Weather in Limoges — Graph

°F

Limoges Temperature Yesterday

Maximum temperature yesterday: 50 °F (at 3:00 pm)
Minimum temperature yesterday: 37 °F (at 12:00 am)
Average temperature yesterday: 44 °F

High & Low Weather Summary for the Past Weeks

 TemperatureHumidityPressure
High50 °F (Feb 4, 3:00 pm)100% (Jan 21, 7:00 am)30.66 "Hg (Jan 21, 7:00 am)
Low25 °F (Jan 30, 4:30 am)61% (Jan 29, 3:00 pm)30.09 "Hg (Jan 27, 2:00 am)
Average35 °F87%30.37 "Hg
* Reported Jan 21 7:00 am — Feb 5 7:00 am, Limoges. Weather by CustomWeather, © 2023

Note: Actual official high and low records may vary slightly from our data, if they occured in-between our weather recording intervals... More about our weather records

Limoges Weather History for the Previous 24 Hours

Scroll right to see more
 ConditionsComfort  
Time TempWeatherWind HumidityBarometerVisibility
7:00 am
Sun, Feb 5
43 °FDrizzle. Fog.7 mph100%30.66 "Hg2 mi
6:30 am43 °FFog.8 mph100%30.63 "Hg3 mi
6:00 am43 °FFog.6 mph100%30.63 "Hg1 mi
5:30 am43 °FFog.6 mph100%30.63 "Hg1 mi
5:00 am43 °FFog.8 mph100%30.63 "Hg1 mi
4:30 am43 °FFog.12 mph93%30.63 "Hg3 mi
4:00 am43 °FMostly cloudy.10 mph93%30.63 "HgN/A
3:30 am43 °FMostly cloudy.9 mph93%30.66 "HgN/A
3:00 am43 °FOvercast.10 mph93%30.66 "HgN/A
2:30 am43 °FOvercast.8 mph93%30.66 "HgN/A
2:00 am43 °FOvercast.9 mph93%30.66 "HgN/A
12:30 am43 °FOvercast.8 mph93%30.66 "HgN/A
12:00 am43 °FMostly cloudy.8 mph93%30.66 "HgN/A
11:00 pm
Sat, Feb 4
45 °FLow clouds.7 mph93%30.66 "HgN/A
10:30 pm45 °FLow clouds.9 mph93%30.63 "HgN/A
10:00 pm45 °FOvercast.9 mph93%30.63 "HgN/A
9:30 pm45 °FOvercast.9 mph87%30.63 "HgN/A
9:00 pm45 °FOvercast.8 mph87%30.60 "HgN/A
8:30 pm45 °FOvercast.8 mph87%30.63 "HgN/A
8:00 pm45 °FOvercast.7 mph87%30.60 "HgN/A
7:30 pm46 °FOvercast.8 mph82%30.60 "HgN/A
7:00 pm46 °FOvercast.9 mph76%30.60 "HgN/A
6:30 pm46 °FOvercast.13 mph76%30.60 "HgN/A
6:00 pm46 °FOvercast.15 mph76%30.60 "HgN/A
5:00 pm48 °FOvercast.13 mph71%30.57 "HgN/A
4:30 pm48 °FOvercast.13 mph71%30.57 "HgN/A
4:00 pm48 °FOvercast.15 mph71%30.57 "HgN/A
3:30 pm48 °FOvercast.15 mph71%30.57 "HgN/A
3:00 pm50 °FOvercast.15 mph67%30.57 "HgN/A
2:30 pm48 °FOvercast.15 mph71%30.57 "HgN/A
2:00 pm48 °FPartly sunny.14 mph71%30.57 "HgN/A
1:00 pm46 °FOvercast.14 mph76%30.57 "HgN/A
12:30 pm45 °FOvercast.14 mph81%30.60 "HgN/A
12:00 pm45 °FOvercast.14 mph81%30.60 "HgN/A
11:30 am45 °FOvercast.14 mph81%30.60 "HgN/A
11:00 am45 °FOvercast.16 mph76%30.60 "HgN/A
10:30 am43 °FOvercast.17 mph87%30.60 "HgN/A
10:00 am43 °FOvercast.14 mph87%30.57 "HgN/A
9:30 am43 °FOvercast.16 mph87%30.57 "HgN/A
9:00 am43 °FOvercast.14 mph87%30.57 "HgN/A
8:30 am43 °FOvercast.16 mph87%30.57 "HgN/A
8:00 am43 °FOvercast.13 mph87%30.57 "HgN/A
Weather by CustomWeather, © 2023

See weather overview